Weather History for Naples, FL

Change the Weather History Date:

Saturday, November 10, 2012

  Actual Average Record
Temperature  
Mean Temperature 68 °F 73 °F  
Max Temperature 78 °F 82 °F 89 °F (1972)
Min Temperature 57 °F 64 °F 45 °F (1956)
Degree Days  
Heating Degree Days 0 0  
Month to date heating degree days 3 0  
Since 1 July heating degree days 4 1  
Cooling Degree Days 3 8  
Month to date cooling degree days 39 92  
Year to date cooling degree days 3880 3687  
Growing Degree Days 17 (Base 50)    
Moisture  
Dew Point 55 °F    
Average Humidity 66    
Maximum Humidity 86    
Minimum Humidity 46    
Precipitation  
Precipitation 0.00 in 0.06 in 1.90 in (1963)
Month to date precipitation 0.12 0.93  
Year to date precipitation 36.15 49.33  
Snow  
Snow 0.00 in - - ()
Month to date snowfall 0.0  
Since 1 July snowfall 0.0  
Since 1 September snowfall 0.0  
Snow Depth 0.00 in    
Sea Level Pressure  
Sea Level Pressure 30.22 in    
Wind  
Wind Speed 8 mph (NE)    
Max Wind Speed 18 mph    
Max Gust Speed 22 mph    
Visibility 10 miles    
Events      
T = Trace of Precipitation, MM = Missing Value Source: NWS Daily Summary

Daily Weather History Graph

Daily Weather History Graph

Search for Another Location

Airport:

Trip Planner

Search our weather history database for the weather conditions in past years. The results will help you decide how hot, cold, wet, or windy it might be!

Date:

Astronomy

Nov. 10, 2012 Rise Set
Actual Time 6:42 AM EST 5:39 PM EST
Civil Twilight 6:18 AM EST 6:03 PM EST
Nautical Twilight 5:50 AM EST 6:31 PM EST
Astronomical Twilight 5:23 AM EST 6:58 PM EST
Moon 3:05 AM EST (11/10) 3:09 PM EST (11/10)
Length of Visible Light 11h 45m
Length of Day
10h 57m
Waning Crescent, 14% of the Moon is Illuminated
Nov 10
Waning Crescent
Nov 13
New
Nov 20
First Quarter
Nov 28
Full
Dec 6
Last Quarter

Hourly Weather History & Observations

Time (EST) Temp. Dew Point Humidity Pressure Visibility Wind Dir Wind Speed Gust Speed Precip Events Conditions
12:53 AM 61.0 °F 54.0 °F 78% 30.20 in 10.0 mi NE 6.9 mph - N/A   Overcast
1:53 AM 60.1 °F 54.0 °F 80% 30.19 in 10.0 mi NNE 6.9 mph - N/A   Mostly Cloudy
2:53 AM 59.0 °F 53.1 °F 81% 30.19 in 10.0 mi North 4.6 mph - N/A   Scattered Clouds
3:53 AM 59.0 °F 53.1 °F 81% 30.20 in 10.0 mi NNE 5.8 mph - N/A   Overcast
4:53 AM 57.9 °F 53.1 °F 84% 30.20 in 10.0 mi NE 5.8 mph - N/A   Mostly Cloudy
5:53 AM 57.9 °F 54.0 °F 87% 30.22 in 10.0 mi ENE 5.8 mph - N/A   Overcast
6:53 AM 57.9 °F 54.0 °F 87% 30.22 in 10.0 mi NNE 3.5 mph - N/A   Scattered Clouds
7:53 AM 62.1 °F 55.0 °F 78% 30.25 in 10.0 mi NNE 5.8 mph - N/A   Partly Cloudy
8:53 AM 66.9 °F 55.0 °F 66% 30.27 in 10.0 mi NE 6.9 mph - N/A   Scattered Clouds
9:53 AM 70.0 °F 55.0 °F 59% 30.27 in 10.0 mi NE 9.2 mph - N/A   Overcast
10:53 AM 73.0 °F 55.9 °F 55% 30.27 in 10.0 mi ENE 6.9 mph - N/A   Scattered Clouds
11:53 AM 75.9 °F 55.0 °F 48% 30.25 in 10.0 mi Variable 5.8 mph - N/A   Partly Cloudy
12:53 PM 75.9 °F 55.0 °F 48% 30.21 in 10.0 mi East 13.8 mph - N/A   Mostly Cloudy
1:53 PM 75.0 °F 55.0 °F 50% 30.18 in 10.0 mi ENE 12.7 mph 19.6 mph N/A   Overcast
2:53 PM 77.0 °F 55.9 °F 48% 30.17 in 10.0 mi ENE 13.8 mph - N/A   Scattered Clouds
3:53 PM 75.9 °F 54.0 °F 46% 30.17 in 10.0 mi East 11.5 mph - N/A   Scattered Clouds
4:53 PM 73.0 °F 55.9 °F 55% 30.18 in 10.0 mi ENE 10.4 mph - N/A   Overcast
5:53 PM 71.1 °F 55.9 °F 59% 30.19 in 10.0 mi NE 5.8 mph - N/A   Overcast
6:53 PM 71.1 °F 57.0 °F 61% 30.22 in 10.0 mi ENE 9.2 mph - N/A   Overcast
7:53 PM 70.0 °F 57.0 °F 63% 30.23 in 10.0 mi ENE 10.4 mph - N/A   Overcast
8:53 PM 66.0 °F 57.0 °F 73% 30.25 in 10.0 mi ENE 5.8 mph - N/A   Clear
9:53 PM 63.0 °F 55.9 °F 78% 30.25 in 10.0 mi ENE 5.8 mph - N/A   Clear